Pagina principale
METAR-TAF:

METAR-TAF

Aeroporti :

Selebi-Phikwe, Botswana

latitudine: 22-03-19S, longitudine: 027-49-13E, altezza: 892 m

Osservazione

Il bollettino è stato emesso 1 ora e 7 minuti fa, alle 16:00 UTC
Vento calmo
Temperature 23°C
Umidità 44%
Pressione 1025 hPa
Visibilità 10 km o più
nessuna nube inferiore a 1500 m e nessun cumulonembo

METAR: FBSP 311600Z 00000KT CAVOK 23/10 Q1025

Ora: 19:07 (17:07 UTC)

Previsione

Il bollettino è stato emesso 5 ore e 7 minuti fa, alle 12:00 UTC
Previsione valida dal 31 alle 15 UTC al 31 alle 24 UTC
Vento 8 kt da est
Visibilità 10 km o più
nessuna nube inferiore a 1500 m e nessun cumulonembo

TAF: FBSP 311200Z 3115/3124 09008KT CAVOK

Osservazioni e previsioni meteorologiche di più di 4000 aeroporti (messaggi METAR e TAF).

Le stazioni disponibili sono rappresentate dai dischi gialli e rossi sulla carta.

Puntare il mouse per vedere il nome della stazione.

Clicca sopra per visualizzare le osservazioni e previsioni meteorologiche.

Per cambiare la mappa : fare clic sui pulsanti verdi con una croce nera per ingrandire, il pulsante verde con un trattino per diminuire, o sulla freccia verde per le mappe adiacenti.


METAR-TAF: